RH
48 41 33 25 22 20 18 16 12 10 9 10 13 16 15 15 14 16 17 19 22 23 26 27 28 30 32 33 33 36 38 39 38 39 40 40 44 49 49 55 64 67 69
47 43 34 28 22 21 19 17 15 12 10 10 12 15 15 15 14 17 19 20 22 22 23 25 26 28 29 31 32 33 34 33 34 33 38 44 52 50 52 56 63 70 74
45 40 35 30 23 21 21 20 17 14 12 11 12 13 14 16 15 17 20 21 22 22 23 23 26 28 29 29 29 30 30 30 32 36 42 50 55 54 53 58 68 72 78
38 35 32 30 24 22 22 20 19 17 14 12 12 13 14 15 15 17 20 21 21 22 22 23 25 25 26 27 28 29 29 29 33 38 48 61 59 57 53 71 74 80 88
35 35 32 28 23 22 21 20 19 20 17 15 14 14 14 15 15 15 18 19 20 20 20 20 22 23 25 26 25 28 29 32 35 47 56 64 62 56 62 67 70 77 87
36 33 30 26 23 23 22 21 20 20 19 17 16 16 15 15 15 16 19 21 22 20 20 20 22 24 25 25 26 29 30 37 39 51 61 66 61 61 61 68 70 76 83
33 34 33 27 25 24 23 21 21 21 20 19 19 18 18 18 17 17 19 21 22 21 20 21 22 22 24 26 27 30 32 38 40 47 56 58 65 69 61 65 66 74 81
29 31 37 38 30 25 24 22 21 21 21 21 21 21 22 22 21 21 22 22 22 18 18 21 20 20 23 26 27 29 32 39 43 54 58 62 63 65 62 60 62 62 73
25 29 33 37 38 31 27 25 24 23 22 20 21 22 23 24 24 25 27 27 26 22 20 22 21 22 24 26 26 28 30 35 43 58 62 59 57 61 62 60 61 62 57
33 31 31 38 41 38 30 28 27 26 24 22 21 22 24 25 26 26 28 30 30 27 23 24 24 25 27 28 28 29 28 31 42 51 53 50 59 62 61 59 60 63 60
39 42 41 37 38 41 40 31 28 29 28 27 25 24 25 26 27 28 30 30 31 30 26 27 26 27 28 29 30 29 29 34 37 43 42 48 52 60 54 54 56 59 63
33 41 42 45 47 47 45 45 36 30 32 32 30 27 26 27 28 29 30 31 32 32 30 28 29 29 29 30 31 30 30 33 35 41 43 46 49 51 53 58 64 66 68
32 35 39 42 53 58 54 56 57 50 35 35 37 34 32 31 31 31 32 32 33 33 32 31 31 31 32 32 33 33 33 35 39 40 43 47 48 50 50 51 58 70 76
28 33 38 42 45 51 59 62 67 68 66 46 36 38 37 36 34 32 33 33 33 34 35 34 34 34 34 36 37 37 37 39 41 41 44 44 44 47 51 50 60 74 79
30 33 38 41 45 46 57 70 68 68 76 78 61 44 39 41 39 37 35 35 35 36 37 37 37 37 37 38 41 42 41 42 44 45 44 46 47 47 49 51 63 74 79
29 31 32 35 38 40 43 55 68 72 70 73 84 70 55 46 44 43 41 39 38 39 40 40 40 40 39 38 41 44 44 44 48 50 51 49 46 47 44 51 54 76 82
26 27 27 29 32 37 39 41 50 60 72 73 75 81 76 63 53 52 49 46 41 41 46 44 43 44 42 41 42 45 47 48 51 55 56 55 53 48 48 45 55 63 82
25 22 22 23 23 25 29 33 37 44 51 57 67 70 77 77 69 59 58 54 54 49 48 51 46 49 47 45 45 45 48 49 51 55 58 60 58 57 53 48 46 57 63
26 23 18 16 16 16 19 23 28 31 39 46 47 53 70 77 83 82 73 66 61 59 55 56 53 52 54 51 50 51 52 54 55 57 57 61 64 65 61 55 48 50 58
20 16 15 15 14 13 14 14 16 21 27 33 43 45 54 66 74 73 81 79 75 71 68 63 63 59 57 55 58 58 57 59 59 56 58 62 62 65 65 63 58 48 53
20 18 17 16 16 15 14 13 13 13 13 18 26 35 43 57 65 69 70 71 81 77 78 74 68 70 66 61 64 69 71 70 66 63 63 59 64 63 68 66 65 60 50
21 19 18 18 18 17 16 15 15 15 15 15 15 20 32 37 51 60 60 61 76 77 81 81 73 71 71 68 73 81 84 85 81 75 70 75 69 65 64 69 68 70 67
21 22 22 20 18 17 16 15 14 14 15 15 14 14 14 27 33 45 46 54 68 76 82 76 86 85 73 67 73 82 91 88 81 83 83 76 72 71 64 65 70 74 74
25 24 22 20 18 17 15 13 14 16 17 16 16 15 16 16 26 30 37 49 59 72 79 76 87 91 90 85 83 81 88 94 91 91 88 85 75 72 69 68 70 75 81
30 27 24 23 21 19 16 15 15 16 17 18 19 18 16 18 20 25 35 36 45 55 60 73 80 88 99 97 98 88 87 90 92 89 90 91 88 77 78 80 75 78 83
33 31 29 27 24 19 16 17 18 20 21 21 21 21 23 21 21 24 26 33 34 40 51 58 68 88 91 95 95 94 93 84 93 98 97 94 92 86 88 88 85 84 84